2015-02-13 00:03:30 r, 14.10m,0000000204Hz,0000000000c,0000000.000s, 005.1C,00002195
2015-02-13 00:13:30 r, 14.01m,0000000220Hz,0000000000c,0000000.000s, 005.4C,00002195
2015-02-13 00:23:30 r, 14.12m,0000000200Hz,0000000000c,0000000.000s, 005.4C,00002195
2015-02-13 00:33:30 r, 14.18m,0000000189Hz,0000000000c,0000000.000s, 005.4C,00002195
2015-02-13 00:43:30 r, 14.04m,0000000215Hz,0000000000c,0000000.000s, 006.1C,00002195
2015-02-13 00:53:30 r, 13.98m,0000000226Hz,0000000000c,0000000.000s, 006.4C,00002195
2015-02-13 01:03:30 r, 14.10m,0000000203Hz,0000000000c,0000000.000s, 006.4C,00002195
2015-02-13 01:13:30 r, 14.01m,0000000221Hz,0000000000c,0000000.000s, 006.4C,00002195
2015-02-13 01:23:30 r, 13.72m,0000000290Hz,0000000000c,0000000.000s, 006.7C,00002195
2015-02-13 01:33:30 r, 13.78m,0000000274Hz,0000000000c,0000000.000s, 006.7C,00002195
2015-02-13 01:43:30 r, 13.72m,0000000288Hz,0000000000c,0000000.000s, 006.7C,00002195
2015-02-13 01:53:30 r, 13.80m,0000000268Hz,0000000000c,0000000.000s, 006.7C,00002195
2015-02-13 02:03:30 r, 13.77m,0000000276Hz,0000000000c,0000000.000s, 006.7C,00002195
2015-02-13 02:13:30 r, 13.78m,0000000275Hz,0000000000c,0000000.000s, 006.7C,00002195
2015-02-13 02:23:30 r, 13.69m,0000000299Hz,0000000000c,0000000.000s, 006.7C,00002195
2015-02-13 02:33:30 r, 13.91m,0000000243Hz,0000000000c,0000000.000s, 007.0C,00002195
2015-02-13 02:43:30 r, 14.15m,0000000195Hz,0000000000c,0000000.000s, 007.0C,00002195
2015-02-13 02:53:30 r, 14.62m,0000000125Hz,0000003655c,0000000.008s, 007.0C,00002195
2015-02-13 03:03:30 r, 14.80m,0000000105Hz,0000004342c,0000000.009s, 007.0C,00002195
2015-02-13 03:13:30 r, 14.13m,0000000198Hz,0000000000c,0000000.000s, 007.0C,00002195
2015-02-13 03:23:30 r, 14.48m,0000000144Hz,0000000000c,0000000.000s, 007.0C,00002195
2015-02-13 03:33:30 r, 14.52m,0000000139Hz,0000000000c,0000000.000s, 006.7C,00002195
2015-02-13 03:43:30 r, 14.62m,0000000126Hz,0000003657c,0000000.008s, 006.7C,00002195
2015-02-13 03:53:30 r, 14.77m,0000000109Hz,0000004201c,0000000.009s, 006.7C,00002195
2015-02-13 04:03:30 r, 14.60m,0000000129Hz,0000000000c,0000000.000s, 006.7C,00002195
2015-02-13 04:13:30 r, 14.42m,0000000152Hz,0000000000c,0000000.000s, 006.7C,00002195
2015-02-13 04:23:30 r, 14.13m,0000000198Hz,0000000000c,0000000.000s, 006.7C,00002195
2015-02-13 04:33:30 r, 14.07m,0000000209Hz,0000000000c,0000000.000s, 006.7C,00002195
2015-02-13 04:43:30 r, 13.96m,0000000231Hz,0000000000c,0000000.000s, 006.7C,00002195
2015-02-13 04:53:30 r, 14.12m,0000000199Hz,0000000000c,0000000.000s, 006.7C,00002195
2015-02-13 05:03:30 r, 14.14m,0000000196Hz,0000000000c,0000000.000s, 006.4C,00002195
2015-02-13 05:13:30 r, 13.98m,0000000228Hz,0000000000c,0000000.000s, 006.4C,00002195
2015-02-13 05:23:30 r, 14.10m,0000000204Hz,0000000000c,0000000.000s, 006.7C,00002195
2015-02-13 05:33:30 r, 14.16m,0000000193Hz,0000000000c,0000000.000s, 006.7C,00002195
2015-02-13 05:43:30 r, 14.30m,0000000170Hz,0000000000c,0000000.000s, 006.7C,00002195
2015-02-13 05:53:30 r, 14.28m,0000000173Hz,0000000000c,0000000.000s, 006.4C,00002195
2015-02-13 06:03:30 r, 14.25m,0000000177Hz,0000000000c,0000000.000s, 006.7C,00002195
2015-02-13 06:13:30 r, 14.32m,0000000167Hz,0000000000c,0000000.000s, 006.7C,00002195
2015-02-13 06:23:30 r, 14.08m,0000000207Hz,0000000000c,0000000.000s, 006.7C,00002195
2015-02-13 06:33:30 r, 13.80m,0000000269Hz,0000000000c,0000000.000s, 006.7C,00002195
2015-02-13 06:43:30 r, 14.34m,0000000163Hz,0000000000c,0000000.000s, 006.4C,00002195
2015-02-13 06:53:30 r, 14.15m,0000000195Hz,0000000000c,0000000.000s, 006.4C,00002195
2015-02-13 07:03:30 r, 13.32m,0000000419Hz,0000000000c,0000000.000s, 006.4C,00002195
2015-02-13 07:13:30 r, 11.82m,0000001679Hz,0000000000c,0000000.000s, 006.4C,00002195
2015-02-13 07:23:30 r, 09.89m,0000009878Hz,0000000000c,0000000.000s, 006.1C,00002195
2015-02-13 07:33:30 r, 08.26m,0000044051Hz,0000000000c,0000000.000s, 006.1C,00002195
2015-02-13 07:43:30 r, 07.09m,0000129926Hz,0000000000c,0000000.000s, 006.1C,00002195
2015-02-13 07:53:30 r, 06.30m,0000269489Hz,0000000000c,0000000.000s, 006.1C,00002195
2015-02-13 08:03:30 r, 00.00m,0000478680Hz,0000000000c,0000000.000s, 005.8C,00002195
2015-02-13 08:13:30 r, 00.00m,0000561263Hz,0000000000c,0000000.000s, 006.1C,00002195
2015-02-13 08:23:30 r, 00.00m,0000561305Hz,0000000000c,0000000.000s, 006.1C,00002195
2015-02-13 08:33:30 r, 00.00m,0000561234Hz,0000000000c,0000000.000s, 006.4C,00002195
2015-02-13 08:43:30 r, 00.00m,0000561341Hz,0000000000c,0000000.000s, 006.4C,00002195
2015-02-13 08:53:30 r, 00.00m,0000561295Hz,0000000000c,0000000.000s, 006.4C,00002195
2015-02-13 09:03:30 r, 00.00m,0000561308Hz,0000000000c,0000000.000s, 006.1C,00002195
2015-02-13 09:13:30 r, 00.00m,0000561340Hz,0000000000c,0000000.000s, 006.1C,00002195
2015-02-13 09:23:30 r, 00.00m,0000561376Hz,0000000000c,0000000.000s, 007.0C,00002195
2015-02-13 09:33:30 r, 00.00m,0000561571Hz,0000000000c,0000000.000s, 008.0C,00002195
2015-02-13 09:43:30 r, 00.00m,0000561708Hz,0000000000c,0000000.000s, 008.7C,00002195
2015-02-13 09:53:30 r, 00.00m,0000561817Hz,0000000000c,0000000.000s, 009.0C,00002195
2015-02-13 10:03:30 r, 00.00m,0000561689Hz,0000000000c,0000000.000s, 008.7C,00002195
2015-02-13 10:13:30 r, 00.00m,0000561976Hz,0000000000c,0000000.000s, 009.6C,00002195
2015-02-13 10:23:30 r, 00.00m,0000561999Hz,0000000000c,0000000.000s, 010.3C,00002195
2015-02-13 10:33:30 r, 00.00m,0000562062Hz,0000000000c,0000000.000s, 010.6C,00002195
2015-02-13 10:43:30 r, 00.00m,0000562085Hz,0000000000c,0000000.000s, 011.2C,00002195
2015-02-13 10:53:30 r, 00.00m,0000562068Hz,0000000000c,0000000.000s, 010.9C,00002195
2015-02-13 11:03:30 r, 00.00m,0000562185Hz,0000000000c,0000000.000s, 011.2C,00002195
2015-02-13 11:13:30 r, 00.00m,0000562298Hz,0000000000c,0000000.000s, 011.6C,00002195
2015-02-13 11:23:30 r, 00.00m,0000562305Hz,0000000000c,0000000.000s, 012.5C,00002195
2015-02-13 11:33:30 r, 00.00m,0000562475Hz,0000000000c,0000000.000s, 013.2C,00002195
2015-02-13 11:43:30 r, 00.00m,0000562451Hz,0000000000c,0000000.000s, 013.2C,00002195
2015-02-13 11:53:30 r, 00.00m,0000562548Hz,0000000000c,0000000.000s, 013.2C,00002195
2015-02-13 12:03:30 r, 00.00m,0000562452Hz,0000000000c,0000000.000s, 013.2C,00002195
2015-02-13 12:13:30 r, 00.00m,0000562479Hz,0000000000c,0000000.000s, 013.5C,00002195
2015-02-13 12:23:30 r, 00.00m,0000562515Hz,0000000000c,0000000.000s, 013.8C,00002195
2015-02-13 12:33:30 r, 00.00m,0000562613Hz,0000000000c,0000000.000s, 013.8C,00002195
2015-02-13 12:43:30 r, 00.00m,0000562655Hz,0000000000c,0000000.000s, 014.1C,00002195
2015-02-13 12:53:30 r, 00.00m,0000562650Hz,0000000000c,0000000.000s, 014.1C,00002195
2015-02-13 13:03:30 r, 00.00m,0000562582Hz,0000000000c,0000000.000s, 014.1C,00002195
2015-02-13 13:13:30 r, 00.00m,0000562611Hz,0000000000c,0000000.000s, 014.5C,00002195
2015-02-13 13:23:30 r, 00.00m,0000562639Hz,0000000000c,0000000.000s, 014.5C,00002195
2015-02-13 13:33:30 r, 00.00m,0000562569Hz,0000000000c,0000000.000s, 014.1C,00002195
2015-02-13 13:43:30 r, 00.00m,0000562572Hz,0000000000c,0000000.000s, 014.1C,00002195
2015-02-13 13:53:30 r, 00.00m,0000562497Hz,0000000000c,0000000.000s, 013.8C,00002195
2015-02-13 14:03:30 r, 00.00m,0000562505Hz,0000000000c,0000000.000s, 013.8C,00002195
2015-02-13 14:13:30 r, 00.00m,0000562386Hz,0000000000c,0000000.000s, 013.2C,00002195
2015-02-13 14:23:30 r, 00.00m,0000562596Hz,0000000000c,0000000.000s, 014.1C,00002195
2015-02-13 14:33:30 r, 00.00m,0000562586Hz,0000000000c,0000000.000s, 014.8C,00002195
2015-02-13 14:43:30 r, 00.00m,0000562537Hz,0000000000c,0000000.000s, 014.5C,00002195
2015-02-13 14:53:30 r, 00.00m,0000562372Hz,0000000000c,0000000.000s, 013.8C,00002195
2015-02-13 15:03:30 r, 00.00m,0000562328Hz,0000000000c,0000000.000s, 013.2C,00002195
2015-02-13 15:13:30 r, 00.00m,0000562199Hz,0000000000c,0000000.000s, 012.5C,00002195
2015-02-13 15:23:30 r, 00.00m,0000561972Hz,0000000000c,0000000.000s, 010.9C,00002195
2015-02-13 15:33:30 r, 00.00m,0000561748Hz,0000000000c,0000000.000s, 009.6C,00002195
2015-02-13 15:43:30 r, 00.00m,0000561628Hz,0000000000c,0000000.000s, 009.3C,00002195
2015-02-13 15:53:30 r, 00.00m,0000561600Hz,0000000000c,0000000.000s, 008.7C,00002195
2015-02-13 16:03:30 r, 00.00m,0000561543Hz,0000000000c,0000000.000s, 008.0C,00002195
2015-02-13 16:13:30 r, 00.00m,0000561376Hz,0000000000c,0000000.000s, 007.4C,00002195
2015-02-13 16:23:30 r, 00.00m,0000561430Hz,0000000000c,0000000.000s, 006.7C,00002195
2015-02-13 16:33:30 r, 00.00m,0000561161Hz,0000000000c,0000000.000s, 006.7C,00002195
2015-02-13 16:43:30 r, 00.00m,0000561289Hz,0000000000c,0000000.000s, 006.7C,00002195
2015-02-13 16:53:30 r, 00.00m,0000561307Hz,0000000000c,0000000.000s, 006.7C,00002195
2015-02-13 17:03:30 r, 00.00m,0000561286Hz,0000000000c,0000000.000s, 006.7C,00002195
2015-02-13 17:13:30 r, 00.00m,0000499554Hz,0000000000c,0000000.000s, 006.4C,00002195
2015-02-13 17:23:30 r, 05.94m,0000375738Hz,0000000000c,0000000.000s, 006.1C,00002195
2015-02-13 17:33:30 r, 06.53m,0000218369Hz,0000000000c,0000000.000s, 006.1C,00002195
2015-02-13 17:43:30 r, 07.21m,0000115892Hz,0000000000c,0000000.000s, 005.8C,00002195
2015-02-13 17:53:30 r, 08.41m,0000038556Hz,0000000000c,0000000.000s, 005.4C,00002195
2015-02-13 18:03:30 r, 10.07m,0000008368Hz,0000000000c,0000000.000s, 005.4C,00002195
2015-02-13 18:13:30 r, 12.10m,0000001291Hz,0000000000c,0000000.000s, 005.1C,00002195
2015-02-13 18:23:30 r, 14.13m,0000000198Hz,0000000000c,0000000.000s, 004.8C,00002195
2015-02-13 18:33:30 r, 15.94m,0000000037Hz,0000012442c,0000000.027s, 004.8C,00002195
2015-02-13 18:43:30 r, 16.95m,0000000015Hz,0000031427c,0000000.068s, 004.1C,00002195
2015-02-13 18:53:30 r, 17.17m,0000000012Hz,0000038595c,0000000.084s, 003.5C,00002195
2015-02-13 19:03:30 r, 16.82m,0000000016Hz,0000027960c,0000000.061s, 003.2C,00002195
2015-02-13 19:13:30 r, 17.19m,0000000012Hz,0000039087c,0000000.085s, 002.9C,00002195
2015-02-13 19:23:30 r, 17.47m,0000000009Hz,0000050768c,0000000.110s, 002.5C,00002195
2015-02-13 19:33:30 r, 17.49m,0000000009Hz,0000051652c,0000000.112s, 002.2C,00002195
2015-02-13 19:43:30 r, 17.50m,0000000009Hz,0000051775c,0000000.112s, 001.9C,00002195
2015-02-13 19:53:30 r, 17.49m,0000000009Hz,0000051084c,0000000.111s, 001.6C,00002195
2015-02-13 20:03:30 r, 17.48m,0000000009Hz,0000050869c,0000000.110s, 001.6C,00002195
2015-02-13 20:13:30 r, 17.49m,0000000009Hz,0000051175c,0000000.111s, 001.2C,00002195
2015-02-13 20:23:30 r, 17.50m,0000000009Hz,0000051824c,0000000.112s, 000.9C,00002195
2015-02-13 20:33:30 r, 17.50m,0000000009Hz,0000051457c,0000000.112s, 000.6C,00002195
2015-02-13 20:43:30 r, 17.49m,0000000009Hz,0000051246c,0000000.111s, 000.3C,00002195
2015-02-13 20:53:30 r, 17.44m,0000000009Hz,0000049100c,0000000.107s, 000.3C,00002195
2015-02-13 21:03:30 r, 17.47m,0000000009Hz,0000050806c,0000000.110s, 000.1C,00002195
2015-02-13 21:13:30 r, 17.45m,0000000009Hz,0000049898c,0000000.108s,-000.4C,00002195
2015-02-13 21:23:30 r, 17.44m,0000000009Hz,0000049082c,0000000.107s,-000.7C,00002195
2015-02-13 21:33:30 r, 17.44m,0000000009Hz,0000049101c,0000000.107s,-001.0C,00002195
2015-02-13 21:43:30 r, 17.43m,0000000009Hz,0000048796c,0000000.106s,-001.0C,00002195
2015-02-13 21:53:30 r, 17.44m,0000000009Hz,0000049106c,0000000.107s,-001.3C,00002195
2015-02-13 22:03:30 r, 17.39m,0000000010Hz,0000047025c,0000000.102s,-001.3C,00002195
2015-02-13 22:13:30 r, 17.46m,0000000009Hz,0000050276c,0000000.109s,-001.7C,00002195
2015-02-13 22:23:30 r, 17.41m,0000000010Hz,0000048047c,0000000.104s,-001.7C,00002195
2015-02-13 22:33:30 r, 17.44m,0000000010Hz,0000049085c,0000000.107s,-001.7C,00002195
2015-02-13 22:43:30 r, 17.48m,0000000009Hz,0000050996c,0000000.111s,-002.0C,00002195
2015-02-13 22:53:30 r, 17.49m,0000000009Hz,0000051819c,0000000.112s,-002.0C,00002195
2015-02-13 23:03:30 r, 17.51m,0000000009Hz,0000052610c,0000000.114s,-002.3C,00002195
2015-02-13 23:13:30 r, 17.51m,0000000009Hz,0000052650c,0000000.114s,-002.3C,00002195
2015-02-13 23:23:30 r, 17.51m,0000000009Hz,0000052527c,0000000.114s,-002.3C,00002195
2015-02-13 23:33:30 r, 17.53m,0000000008Hz,0000053601c,0000000.116s,-002.3C,00002195
2015-02-13 23:43:30 r, 17.53m,0000000009Hz,0000053664c,0000000.116s,-002.6C,00002195
2015-02-13 23:53:30 r, 17.53m,0000000008Hz,0000053698c,0000000.117s,-002.6C,00002195
